Date String (YYYY-MM-DD hh:mm:ss) UTC,Instrument flags,Ambient pressure (hPa),Sample flow (lpm),Bypass flow (lpm),Sample temperature (°C),Ambient temperature (°C),ASC tube jacket temperature (°C),LED temperature (°C),Box temperature (°C),Sample RH (%),Span deviation,Mass concentration (μg/m³),Mass concentration (μg/m³),Mass concentration (μg/m³)
DateTimeUTC,F1_M11,P_M11,Q1_M11,Q2_M11,T1_M11,T2_M11,T3_M11,T4_M11,T5_M11,U1_M11,ZSPAN_M11,X0_M11,X2_M11,X1_M11
2023-05-17 16:00:00,,0831.1,5.01,0.00,29.8,28.5,00.0,38.1,31.4,19.6,0000.0,0010.62,0004.26,0003.27
2023-05-17 16:01:00,,0831.1,5.00,0.00,29.8,28.5,00.0,38.1,31.5,18.8,0000.0,0010.75,0004.27,0003.27
2023-05-17 16:02:00,,0831.1,5.00,0.00,29.8,28.5,00.0,38.1,31.5,18.5,0000.0,0011.05,0004.29,0003.28
2023-05-17 16:03:00,,0831.1,4.99,0.00,29.8,28.5,00.0,38.1,31.5,19.3,0000.0,0010.25,0004.22,0003.27
2023-05-17 16:04:00,,0831.1,4.99,0.00,29.9,28.5,00.0,38.2,31.5,19.5,0000.0,0009.97,0004.22,0003.27
2023-05-17 16:05:00,,0831.0,5.00,0.00,29.9,28.5,00.0,38.2,31.5,17.9,0000.0,0009.72,0004.21,0003.27
2023-05-17 16:06:00,,0831.0,5.02,0.00,29.9,28.6,00.0,38.2,31.5,18.6,0000.0,0009.64,0004.19,0003.27
2023-05-17 16:07:00,,0831.0,5.00,0.00,29.9,28.6,00.0,38.2,31.5,18.1,0000.0,0009.63,0004.18,0003.27
2023-05-17 16:08:00,,0830.9,4.99,0.00,29.9,28.6,00.0,38.2,31.5,18.3,0000.0,0009.92,0004.19,0003.27
2023-05-17 16:09:00,,0831.0,4.99,0.00,29.9,28.6,00.0,38.2,31.5,18.6,0000.0,0010.10,0004.21,0003.28
2023-05-17 16:10:00,,0830.9,5.00,0.00,29.9,28.6,00.0,38.2,31.6,18.8,0000.0,0009.52,0004.21,0003.29
2023-05-17 16:11:00,,0830.9,5.00,0.00,30.0,28.7,00.0,38.2,31.6,18.2,0000.0,0009.71,0004.20,0003.30
2023-05-17 16:12:00,,0830.9,5.00,0.00,30.0,28.6,00.0,38.2,31.6,18.8,0000.0,0009.67,0004.21,0003.30
2023-05-17 16:13:00,,0831.0,5.00,0.00,30.0,27.2,00.0,38.2,31.4,19.4,0000.0,0009.42,0004.21,0003.30
2023-05-17 16:14:00,,0830.9,5.01,0.00,29.9,25.7,00.0,38.1,31.1,19.7,0000.0,0009.41,0004.25,0003.30
2023-05-17 16:15:00,,0830.9,5.02,0.00,29.8,25.6,00.0,38.0,31.0,20.3,0000.0,0009.03,0004.24,0003.32
2023-05-17 16:16:00,,0830.8,4.99,0.00,29.7,25.9,00.0,38.0,30.9,20.3,0000.0,0008.89,0004.25,0003.34
2023-05-17 16:17:00,,0830.9,5.00,0.00,29.6,26.2,00.0,38.0,30.9,21.3,0000.0,0009.39,0004.30,0003.36
2023-05-17 16:18:00,,0830.8,5.01,0.00,29.6,26.5,00.0,38.0,30.9,21.1,0000.0,0009.69,0004.31,0003.37
2023-05-17 16:19:00,,0830.9,5.01,0.00,29.6,26.8,00.0,38.0,31.0,21.9,0000.0,0009.72,0004.34,0003.39
2023-05-17 16:20:00,,0830.9,4.98,0.00,29.5,27.1,00.0,38.0,31.0,21.7,0000.0,0009.55,0004.34,0003.40
2023-05-17 16:21:00,,0830.8,5.00,0.00,29.5,27.3,00.0,38.0,31.0,22.1,0000.0,0009.47,0004.33,0003.41
2023-05-17 16:22:00,,0830.8,5.01,0.00,29.5,27.5,00.0,37.9,31.0,22.1,0000.0,0009.38,0004.40,0003.42
2023-05-17 16:23:00,,0830.8,5.00,0.00,29.5,27.6,00.0,37.9,31.1,22.1,0000.0,0009.48,0004.47,0003.44
2023-05-17 16:24:00,,0830.9,4.99,0.00,29.5,27.8,00.0,37.9,31.1,22.4,0000.0,0009.61,0004.51,0003.44
2023-05-17 16:25:00,,0830.9,5.01,0.00,29.6,27.9,00.0,37.9,31.1,21.5,0000.0,0009.69,0004.54,0003.46
2023-05-17 16:26:00,,0830.9,5.00,0.00,29.6,28.0,00.0,37.9,31.1,21.2,0000.0,0009.75,0004.57,0003.47
2023-05-17 16:27:00,,0830.9,5.00,0.00,29.6,28.0,00.0,37.9,31.2,21.1,0000.0,0009.77,0004.58,0003.47
2023-05-17 16:28:00,,0830.9,4.99,0.00,29.6,28.1,00.0,37.9,31.2,21.0,0000.0,0009.58,0004.58,0003.47
2023-05-17 16:29:00,,0830.9,5.00,0.00,29.6,28.1,00.0,37.9,31.2,21.2,0000.0,0009.84,0004.58,0003.48
2023-05-17 16:30:00,,0830.9,5.00,0.00,29.6,28.2,00.0,37.9,31.2,20.0,0000.0,0009.60,0004.59,0003.48
2023-05-17 16:31:00,,0830.9,5.00,0.00,29.6,28.2,00.0,38.0,31.2,20.7,0000.0,0009.49,0004.57,0003.47
2023-05-17 16:32:00,,0830.9,5.01,0.00,29.7,28.2,00.0,38.0,31.3,21.1,0000.0,0010.12,0004.63,0003.47
2023-05-17 16:33:00,,0830.9,4.99,0.00,29.7,28.3,00.0,38.0,31.3,20.9,0000.0,0010.24,0004.63,0003.49
2023-05-17 16:34:00,,0830.9,4.99,0.00,29.7,28.3,00.0,38.0,31.3,21.5,0000.0,0010.68,0004.59,0003.49
2023-05-17 16:35:00,,0830.9,5.01,0.00,29.7,28.3,00.0,38.0,31.3,21.1,0000.0,0010.89,0004.51,0003.49
2023-05-17 16:36:00,,0830.9,5.01,0.00,29.7,28.4,00.0,38.0,31.3,21.6,0000.0,0010.80,0004.48,0003.49
2023-05-17 16:37:00,,0830.9,5.00,0.00,29.7,28.0,00.0,38.0,31.3,21.5,0000.0,0010.82,0004.50,0003.50
2023-05-17 16:38:00,,0830.8,4.98,0.00,29.7,26.4,00.0,37.9,31.1,22.0,0000.0,0010.85,0004.52,0003.50
2023-05-17 16:39:00,,0830.8,5.02,0.00,29.6,25.6,00.0,37.8,31.0,21.7,0000.0,0010.80,0004.51,0003.51
2023-05-17 16:40:00,,0830.7,5.01,0.00,29.6,25.8,00.0,37.8,30.9,22.4,0000.0,0010.58,0004.51,0003.52
2023-05-17 16:41:00,,0830.8,5.00,0.00,29.5,26.0,00.0,37.8,30.8,23.9,0000.0,0010.85,0004.48,0003.53
2023-05-17 16:42:00,,0830.8,5.00,0.00,29.5,26.3,00.0,37.8,30.9,23.1,0000.0,0010.92,0004.49,0003.54
2023-05-17 16:43:00,,0830.7,5.00,0.00,29.4,26.6,00.0,37.8,30.9,22.9,0000.0,0010.60,0004.47,0003.54
2023-05-17 16:44:00,,0830.7,5.00,0.00,29.4,26.9,00.0,37.8,30.9,23.4,0000.0,0010.76,0004.47,0003.53
2023-05-17 16:45:00,,0830.7,5.00,0.00,29.4,27.1,00.0,37.8,31.0,22.5,0000.0,0010.22,0004.48,0003.54
2023-05-17 16:46:00,,0830.6,5.00,0.00,29.4,27.3,00.0,37.8,31.0,22.7,0000.0,0010.01,0004.56,0003.56
2023-05-17 16:47:00,,0830.7,5.01,0.00,29.4,27.5,00.0,37.8,31.0,22.5,0000.0,0010.03,0004.58,0003.57
2023-05-17 16:48:00,,0830.7,5.00,0.00,29.4,27.6,00.0,37.8,31.0,22.6,0000.0,0009.99,0004.55,0003.57
2023-05-17 16:49:00,,0830.6,4.99,0.00,29.4,27.7,00.0,37.8,31.0,23.2,0000.0,0010.38,0004.58,0003.57
2023-05-17 16:50:00,,0830.6,4.99,0.00,29.5,27.8,00.0,37.8,31.0,23.5,0000.0,0010.92,0004.58,0003.57
2023-05-17 16:51:00,,0830.6,5.00,0.00,29.5,27.9,00.0,37.8,31.1,23.3,0000.0,0010.94,0004.57,0003.57
2023-05-17 16:52:00,,0830.6,5.01,0.00,29.5,28.0,00.0,37.8,31.1,23.5,0000.0,0010.92,0004.59,0003.56
2023-05-17 16:53:00,,0830.6,5.01,0.00,29.5,28.0,00.0,37.8,31.1,23.4,0000.0,0010.93,0004.66,0003.57
2023-05-17 16:54:00,,0830.6,4.99,0.00,29.5,28.1,00.0,37.8,31.1,23.8,0000.0,0010.65,0004.63,0003.57
2023-05-17 16:55:00,,0830.6,4.99,0.00,29.5,28.1,00.0,37.8,31.2,24.2,0000.0,0010.86,0004.67,0003.58
2023-05-17 16:56:00,,0830.5,5.00,0.00,29.6,28.2,00.0,37.8,31.2,24.2,0000.0,0011.59,0004.71,0003.58
2023-05-17 16:57:00,,0830.6,5.01,0.00,29.6,28.2,00.0,37.9,31.2,23.9,0000.0,0011.75,0004.75,0003.58
2023-05-17 16:58:00,,0830.5,5.00,0.00,29.6,28.1,00.0,37.9,31.2,23.8,0000.0,0011.89,0004.79,0003.57
2023-05-17 16:59:00,,0830.6,4.98,0.00,29.6,26.8,00.0,37.8,31.1,22.1,0000.0,0011.96,0004.83,0003.57
